| time (UTC) | temp C | wind direction | speed KPH | gust KPH | rain 1hr cm | rain 24hr cm | rain mn cm | humidity % | barometer mb |
| 20260508154807 | 13 | 270 | 3.2 | 11.3 | 0.00 | 0.00 | 0.00 | 65 | 1005.5 |
| 20260508154258 | 13 | 270 | 3.2 | 11.3 | 0.00 | 0.00 | 0.00 | 66 | 1005.7 |
| 20260508153238 | 12 | 248 | 3.2 | 22.5 | 0.00 | 0.00 | 0.00 | 69 | 1005.7 |
| 20260508152727 | 12 | 248 | 4.8 | 17.7 | 0.00 | 0.00 | 0.00 | 68 | 1005.8 |
| 20260508151707 | 12 | 270 | 3.2 | 11.3 | 0.00 | 0.00 | 0.00 | 69 | 1005.9 |
| 20260508151156 | 12 | 248 | 3.2 | 12.9 | 0.00 | 0.00 | 0.00 | 69 | 1005.9 |
| 20260508150647 | 11 | 270 | 3.2 | 12.9 | 0.00 | 0.00 | 0.00 | 68 | 1005.9 |
| 20260508145116 | 11 | 293 | 3.2 | 12.9 | 0.00 | 0.00 | 0.00 | 70 | 1005.8 |
| 20260508144056 | 10 | 293 | 4.8 | 11.3 | 0.00 | 0.00 | 0.00 | 74 | 1006.2 |
| 20260508143546 | 10 | 270 | 4.8 | 11.3 | 0.00 | 0.00 | 0.00 | 73 | 1006.5 |
| 20260508143047 | 10 | 270 | 4.8 | 14.5 | 0.00 | 0.00 | 0.00 | 73 | 1006.2 |
| 20260508142016 | 10 | 248 | 3.2 | 12.9 | 0.00 | 0.00 | 0.00 | 74 | 1006.3 |
| 20260508141513 | 10 | 270 | 3.2 | 12.9 | 0.00 | 0.00 | 0.00 | 75 | 1006.1 |
| 20260508140955 | 10 | 315 | 3.2 | 11.3 | 0.00 | 0.00 | 0.00 | 75 | 1006.1 |
| 20260508140446 | 10 | 293 | 3.2 | 11.3 | 0.00 | 0.00 | 0.00 | 75 | 1006.2 |
| 20260508135935 | 9 | 338 | 3.2 | 11.3 | 0.00 | 0.00 | 0.00 | 76 | 1006.3 |
| 20260508135424 | 10 | 270 | 3.2 | 11.3 | 0.00 | 0.00 | 0.00 | 76 | 1006.2 |
| 20260508134915 | 10 | 270 | 3.2 | 11.3 | 0.00 | 0.00 | 0.00 | 77 | 1006.4 |
| 20260508134405 | 10 | 248 | 4.8 | 9.7 | 0.00 | 0.00 | 0.00 | 77 | 1006.4 |
| 20260508133855 | 9 | 270 | 1.6 | 11.3 | 0.00 | 0.00 | 0.00 | 77 | 1006.1 |
| 20260508133344 | 9 | 293 | 3.2 | 11.3 | 0.00 | 0.00 | 0.00 | 78 | 1006.2 |
| 20260508132835 | 9 | 248 | 3.2 | 20.9 | 0.00 | 0.00 | 0.00 | 79 | 1006.1 |
| 20260508131815 | 9 | 270 | 3.2 | 9.7 | 0.00 | 0.00 | 0.00 | 79 | 1006.1 |
| 20260508131304 | 9 | 248 | 3.2 | 11.3 | 0.00 | 0.00 | 0.00 | 79 | 1006.0 |
| 20260508130754 | 8 | 225 | 4.8 | 11.3 | 0.00 | 0.00 | 0.00 | 80 | 1006.0 |
| 20260508130244 | 8 | 248 | 4.8 | 11.3 | 0.00 | 0.00 | 0.00 | 79 | 1006.1 |
| 20260508125734 | 8 | 248 | 3.2 | 12.9 | 0.00 | 0.00 | 0.00 | 80 | 1006.0 |
| 20260508125223 | 8 | 248 | 4.8 | 12.9 | 0.00 | 0.00 | 0.00 | 80 | 1006.1 |
| 20260508124204 | 8 | 293 | 4.8 | 17.7 | 0.00 | 0.00 | 0.00 | 80 | 1006.0 |
| 20260508123654 | 8 | 270 | 3.2 | 17.7 | 0.00 | 0.00 | 0.00 | 80 | 1005.8 |
| 20260508123143 | 8 | 248 | 3.2 | 12.9 | 0.00 | 0.00 | 0.00 | 82 | 1005.8 |
| 20260508122634 | 8 | 203 | 3.2 | 9.7 | 0.00 | 0.00 | 0.00 | 82 | 1005.8 |
| 20260508122123 | 7 | 315 | 3.2 | 11.3 | 0.00 | 0.00 | 0.00 | 83 | 1005.6 |
| 20260508121613 | 7 | 315 | 3.2 | 11.3 | 0.00 | 0.00 | 0.00 | 83 | 1005.5 |
| 20260508121103 | 8 | 248 | 3.2 | 17.7 | 0.00 | 0.00 | 0.00 | 83 | 1005.5 |
| 20260508120554 | 7 | 248 | 1.6 | 17.7 | 0.00 | 0.00 | 0.00 | 83 | 1005.5 |
| 20260508120053 | 7 | 248 | 3.2 | 11.3 | 0.00 | 0.00 | 0.00 | 83 | 1005.5 |
| 20260508115532 | 7 | 293 | 3.2 | 9.7 | 0.00 | 0.00 | 0.00 | 83 | 1005.3 |
| 20260508115023 | 7 | 248 | 4.8 | 9.7 | 0.00 | 0.00 | 0.00 | 83 | 1005.4 |
| 20260508114003 | 7 | 270 | 3.2 | 14.5 | 0.00 | 0.00 | 0.00 | 85 | 1005.2 |
| 20260508113452 | 7 | 293 | 3.2 | 14.5 | 0.00 | 0.00 | 0.00 | 84 | 1005.2 |
| 20260508112941 | 7 | 270 | 3.2 | 17.7 | 0.00 | 0.00 | 0.00 | 85 | 1004.9 |
| 20260508112432 | 7 | 270 | 3.2 | 17.7 | 0.00 | 0.00 | 0.00 | 85 | 1004.9 |
| 20260508111412 | 7 | 248 | 1.6 | 17.7 | 0.00 | 0.00 | 0.00 | 86 | 1005.0 |
| 20260508110351 | 6 | 270 | 3.2 | 6.4 | 0.00 | 0.00 | 0.00 | 89 | 1004.8 |
| 20260508105841 | 6 | 248 | 3.2 | 6.4 | 0.00 | 0.00 | 0.00 | 89 | 1004.8 |
| 20260508105331 | 6 | 248 | 3.2 | 6.4 | 0.00 | 0.00 | 0.00 | 89 | 1004.7 |
| 20260508104821 | 6 | 270 | 3.2 | 6.4 | 0.00 | 0.00 | 0.00 | 88 | 1004.7 |
| 20260508104311 | 6 | 270 | 1.6 | 6.4 | 0.00 | 0.00 | 0.00 | 87 | 1004.7 |
| 20260508103801 | 7 | 248 | 3.2 | 6.4 | 0.00 | 0.00 | 0.00 | 86 | 1004.7 |
| 20260508102231 | 7 | 270 | 1.6 | 9.7 | 0.00 | 0.00 | 0.00 | 85 | 1004.3 |
| 20260508101720 | 7 | 270 | 3.2 | 9.7 | 0.00 | 0.00 | 0.00 | 85 | 1004.4 |
| 20260508101211 | 7 | 248 | 3.2 | 6.4 | 0.00 | 0.00 | 0.00 | 86 | 1004.3 |
| 20260508100700 | 7 | 270 | 3.2 | 6.4 | 0.00 | 0.00 | 0.00 | 86 | 1004.2 |
| 20260508100150 | 7 | 248 | 3.2 | 9.7 | 0.00 | 0.00 | 0.00 | 87 | 1004.3 |
| 20260508095640 | 7 | 293 | 1.6 | 9.7 | 0.00 | 0.00 | 0.00 | 87 | 1004.0 |
| 20260508095130 | 7 | 270 | 3.2 | 11.3 | 0.00 | 0.00 | 0.00 | 87 | 1004.0 |
| 20260508094631 | 7 | 248 | 4.8 | 11.3 | 0.00 | 0.00 | 0.00 | 86 | 1004.1 |
| 20260508094109 | 7 | 270 | 0.0 | 9.7 | 0.00 | 0.00 | 0.00 | 85 | 1004.0 |
| 20260508093600 | 7 | 270 | 1.6 | 9.7 | 0.00 | 0.00 | 0.00 | 85 | 1004.0 |
| 20260508093049 | 7 | 248 | 1.6 | 6.4 | 0.00 | 0.00 | 0.00 | 86 | 1003.9 |
| 20260508092540 | 7 | 270 | 3.2 | 6.4 | 0.00 | 0.00 | 0.00 | 87 | 1004.0 |
| 20260508092029 | 7 | 248 | 3.2 | 6.4 | 0.00 | 0.00 | 0.00 | 88 | 1004.0 |
| 20260508091519 | 7 | 248 | 3.2 | 6.4 | 0.00 | 0.00 | 0.00 | 88 | 1003.9 |
| 20260508091009 | 7 | 248 | 3.2 | 11.3 | 0.00 | 0.00 | 0.00 | 88 | 1003.9 |
| 20260508090458 | 7 | 248 | 3.2 | 11.3 | 0.00 | 0.00 | 0.00 | 88 | 1004.0 |
| 20260508085438 | 7 | 293 | 3.2 | 9.7 | 0.00 | 0.00 | 0.00 | 86 | 1003.6 |
| 20260508084929 | 8 | 248 | 3.2 | 9.7 | 0.00 | 0.00 | 0.00 | 86 | 1003.8 |
| 20260508084419 | 8 | 293 | 3.2 | 9.7 | 0.00 | 0.00 | 0.00 | 85 | 1003.7 |
| 20260508083909 | 8 | 248 | 3.2 | 6.4 | 0.00 | 0.00 | 0.00 | 83 | 1003.6 |
| 20260508082848 | 8 | 270 | 3.2 | 11.3 | 0.00 | 0.00 | 0.00 | 85 | 1003.7 |
| 20260508082339 | 8 | 225 | 3.2 | 11.3 | 0.00 | 0.00 | 0.00 | 85 | 1003.7 |
| 20260508081828 | 8 | 293 | 3.2 | 6.4 | 0.00 | 0.00 | 0.00 | 85 | 1003.7 |
| 20260508081317 | 8 | 270 | 0.0 | 6.4 | 0.00 | 0.00 | 0.00 | 87 | 1003.5 |
| 20260508080808 | 8 | 248 | 3.2 | 6.4 | 0.00 | 0.00 | 0.00 | 86 | 1003.6 |
| 20260508080257 | 8 | 270 | 0.0 | 6.4 | 0.00 | 0.00 | 0.00 | 87 | 1003.4 |
| 20260508075748 | 8 | 270 | 1.6 | 6.4 | 0.00 | 0.00 | 0.00 | 87 | 1003.4 |
| 20260508075237 | 8 | 270 | 1.6 | 6.4 | 0.00 | 0.00 | 0.00 | 87 | 1003.3 |
| 20260508074727 | 8 | 270 | 1.6 | 6.4 | 0.00 | 0.00 | 0.00 | 87 | 1003.3 |
| 20260508074217 | 8 | 270 | 0.0 | 6.4 | 0.00 | 0.00 | 0.00 | 87 | 1003.3 |
| 20260508073706 | 8 | 293 | 1.6 | 6.4 | 0.00 | 0.00 | 0.00 | 86 | 1003.5 |
| 20260508073156 | 8 | 293 | 4.8 | 6.4 | 0.00 | 0.00 | 0.00 | 86 | 1003.4 |
| 20260508072646 | 8 | 270 | 3.2 | 6.4 | 0.00 | 0.00 | 0.00 | 85 | 1003.2 |
| 20260508072136 | 8 | 248 | 1.6 | 6.4 | 0.00 | 0.00 | 0.00 | 84 | 1003.4 |
| 20260508071626 | 8 | 270 | 3.2 | 6.4 | 0.00 | 0.00 | 0.00 | 84 | 1003.4 |
| 20260508071116 | 8 | 270 | 3.2 | 6.4 | 0.00 | 0.00 | 0.00 | 84 | 1003.4 |
| 20260508070101 | 9 | 270 | 3.2 | 6.4 | 0.00 | 0.00 | 0.00 | 84 | 1003.6 |
| 20260508065556 | 9 | 293 | 1.6 | 6.4 | 0.00 | 0.00 | 0.00 | 83 | 1003.7 |
| 20260508065036 | 9 | 293 | 3.2 | 6.4 | 0.00 | 0.00 | 0.00 | 83 | 1003.7 |
| 20260508064525 | 9 | 270 | 3.2 | 6.4 | 0.00 | 0.00 | 0.00 | 82 | 1003.5 |
| 20260508064016 | 9 | 270 | 0.0 | 6.4 | 0.00 | 0.00 | 0.00 | 82 | 1003.7 |
| 20260508063505 | 9 | 248 | 3.2 | 6.4 | 0.00 | 0.00 | 0.00 | 82 | 1003.9 |
| 20260508062956 | 9 | 270 | 3.2 | 9.7 | 0.00 | 0.00 | 0.00 | 83 | 1003.9 |
| 20260508062445 | 8 | 270 | 3.2 | 9.7 | 0.00 | 0.00 | 0.00 | 84 | 1004.0 |
| 20260508061935 | 9 | 270 | 1.6 | 6.4 | 0.00 | 0.00 | 0.00 | 85 | 1003.9 |
| 20260508061425 | 8 | 270 | 3.2 | 6.4 | 0.00 | 0.00 | 0.00 | 84 | 1004.1 |
| 20260508060916 | 8 | 270 | 3.2 | 6.4 | 0.00 | 0.00 | 0.00 | 84 | 1004.0 |
| 20260508060404 | 9 | 270 | 1.6 | 0.0 | 0.00 | 0.00 | 0.00 | 84 | 1004.1 |
| 20260508060201 | 9 | 270 | 0.0 | 0.0 | 0.00 | 0.00 | 0.00 | 83 | 1004.1 |
| 20260508055539 | 9 | 293 | 0.0 | 11.3 | 0.00 | 0.00 | 0.00 | 82 | 1004.0 |
| 20260508055030 | 9 | 270 | 1.6 | 11.3 | 0.00 | 0.00 | 0.00 | 82 | 1004.1 |
| 20260508054519 | 9 | 270 | 1.6 | 6.4 | 0.00 | 0.00 | 0.00 | 82 | 1004.3 |
| 20260508054009 | 9 | 270 | 3.2 | 12.9 | 0.00 | 0.00 | 0.00 | 82 | 1004.0 |
| 20260508053458 | 9 | 338 | 3.2 | 14.5 | 0.00 | 0.00 | 0.00 | 82 | 1004.2 |
| 20260508052949 | 9 | 270 | 0.0 | 14.5 | 0.00 | 0.00 | 0.00 | 83 | 1004.4 |
| 20260508050909 | 8 | 270 | 0.0 | 6.4 | 0.00 | 0.00 | 0.00 | 87 | 1004.3 |
| 20260508050358 | 8 | 293 | 0.0 | 9.7 | 0.00 | 0.00 | 0.00 | 88 | 1004.3 |
| 20260508045849 | 8 | 293 | 0.0 | 9.7 | 0.00 | 0.00 | 0.00 | 88 | 1004.2 |
| 20260508045338 | 8 | 270 | 1.6 | 6.4 | 0.00 | 0.00 | 0.00 | 89 | 1003.9 |
| 20260508044829 | 8 | 270 | 1.6 | 3.2 | 0.00 | 0.00 | 0.00 | 89 | 1004.0 |
| 20260508044318 | 8 | 270 | 1.6 | 6.4 | 0.00 | 0.00 | 0.00 | 89 | 1003.8 |
| 20260508043807 | 8 | 270 | 0.0 | 6.4 | 0.00 | 0.00 | 0.00 | 89 | 1003.9 |
| 20260508043257 | 8 | 270 | 1.6 | 6.4 | 0.00 | 0.00 | 0.00 | 89 | 1003.9 |
| 20260508042238 | 8 | 270 | 1.6 | 9.7 | 0.00 | 0.00 | 0.00 | 90 | 1003.9 |
| 20260508041728 | 8 | 270 | 1.6 | 6.4 | 0.00 | 0.00 | 0.00 | 91 | 1003.9 |
| 20260508041218 | 8 | 315 | 1.6 | 6.4 | 0.00 | 0.00 | 0.00 | 92 | 1003.9 |
| 20260508040707 | 8 | 248 | 1.6 | 6.4 | 0.00 | 0.00 | 0.00 | 92 | 1004.1 |
| 20260508040158 | 8 | 270 | 1.6 | 6.4 | 0.00 | 0.00 | 0.00 | 93 | 1004.1 |
| 20260508035648 | 8 | 0 | 3.2 | 6.4 | 0.00 | 0.00 | 0.00 | 93 | 1004.0 |
| 20260508035136 | 8 | 270 | 0.0 | 6.4 | 0.00 | 0.00 | 0.00 | 94 | 1004.0 |
| 20260508034627 | 8 | 338 | 3.2 | 11.3 | 0.00 | 0.00 | 0.00 | 95 | 1004.0 |
| 20260508034117 | 8 | 315 | 3.2 | 11.3 | 0.00 | 0.00 | 0.00 | 95 | 1004.0 |
| 20260508033606 | 8 | 270 | 3.2 | 9.7 | 0.00 | 0.00 | 0.00 | 96 | 1004.1 |
| 20260508032546 | 8 | 158 | 3.2 | 12.9 | 0.00 | 0.00 | 0.00 | 96 | 1004.0 |
| 20260508032037 | 8 | 248 | 3.2 | 12.9 | 0.00 | 0.00 | 0.00 | 97 | 1004.0 |
| 20260508031526 | 8 | 23 | 3.2 | 11.3 | 0.00 | 0.00 | 0.00 | 97 | 1004.1 |
| 20260508031016 | 8 | 270 | 3.2 | 6.4 | 0.00 | 0.00 | 0.00 | 97 | 1004.1 |
| 20260508030506 | 8 | 225 | 3.2 | 6.4 | 0.00 | 0.00 | 0.00 | 97 | 1004.1 |
| 20260508025955 | 8 | 270 | 1.6 | 6.4 | 0.00 | 0.00 | 2.39 | 98 | 1004.0 |
| 20260508025446 | 8 | 248 | 1.6 | 9.7 | 0.00 | 0.00 | 2.39 | 98 | 1004.1 |
| 20260508024935 | 9 | 45 | 3.2 | 9.7 | 0.00 | 0.00 | 2.39 | 97 | 1003.9 |
| 20260508024426 | 9 | 270 | 1.6 | 6.4 | 0.00 | 0.00 | 2.39 | 97 | 1003.9 |
| 20260508023915 | 9 | 293 | 1.6 | 6.4 | 0.00 | 0.00 | 2.39 | 97 | 1003.7 |
| 20260508023404 | 9 | 315 | 3.2 | 11.3 | 0.00 | 0.00 | 2.39 | 96 | 1003.8 |
| 20260508022855 | 9 | 248 | 3.2 | 11.3 | 0.00 | 0.00 | 2.39 | 96 | 1003.9 |
| 20260508021835 | 9 | 248 | 3.2 | 9.7 | 0.00 | 0.00 | 2.39 | 97 | 1003.7 |
| 20260508021324 | 9 | 248 | 3.2 | 11.3 | 0.00 | 0.00 | 2.39 | 97 | 1003.5 |
| 20260508020815 | 9 | 0 | 1.6 | 11.3 | 0.00 | 0.00 | 2.39 | 97 | 1003.4 |
| 20260508020305 | 9 | 248 | 1.6 | 6.4 | 0.00 | 0.00 | 2.39 | 98 | 1003.3 |
| 20260508015244 | 9 | 248 | 1.6 | 6.4 | 0.00 | 0.00 | 2.39 | 98 | 1003.4 |
| 20260508014734 | 9 | 293 | 1.6 | 11.3 | 0.00 | 0.00 | 2.39 | 98 | 1003.4 |
| 20260508013203 | 9 | 248 | 3.2 | 14.5 | 0.00 | 0.00 | 2.39 | 99 | 1003.6 |
| 20260508012143 | 9 | 338 | 3.2 | 11.3 | 0.00 | 0.00 | 2.39 | 99 | 1003.5 |
| 20260508011634 | 9 | 248 | 3.2 | 9.7 | 0.00 | 0.00 | 2.39 | 99 | 1003.6 |
| 20260508011123 | 10 | 293 | 3.2 | 11.3 | 0.00 | 0.00 | 2.39 | 99 | 1003.7 |
| 20260508010614 | 10 | 248 | 3.2 | 14.5 | 0.00 | 0.00 | 2.39 | 99 | 1003.8 |
| 20260508010103 | 10 | 293 | 3.2 | 14.5 | 0.00 | 0.00 | 2.39 | 99 | 1003.9 |
| 20260508005043 | 10 | 225 | 3.2 | 9.7 | 0.00 | 0.00 | 2.39 | 99 | 1003.8 |
| 20260508004023 | 10 | 270 | 3.2 | 9.7 | 0.00 | 0.00 | 2.39 | 99 | 1003.9 |
| 20260508003513 | 10 | 248 | 3.2 | 11.3 | 0.00 | 0.00 | 2.39 | 98 | 1003.9 |
| 20260508003003 | 10 | 315 | 4.8 | 11.3 | 0.00 | 0.00 | 2.39 | 98 | 1003.9 |
| 20260508002452 | 10 | 315 | 3.2 | 12.9 | 0.00 | 0.00 | 2.39 | 98 | 1004.1 |
| 20260508001942 | 10 | 248 | 3.2 | 12.9 | 0.00 | 0.00 | 2.39 | 98 | 1004.0 |
| 20260508000922 | 10 | 270 | 3.2 | 11.3 | 0.00 | 0.00 | 2.39 | 98 | 1004.1 |
| 20260508000412 | 10 | 248 | 4.8 | 11.3 | 0.00 | 0.00 | 2.39 | 97 | 1004.1 |
| 20260507235902 | 10 | 248 | 3.2 | 6.4 | 0.00 | 0.00 | 2.39 | 97 | 1004.2 |
| 20260507235352 | 10 | 270 | 1.6 | 6.4 | 0.00 | 0.00 | 2.39 | 97 | 1004.0 |
| 20260507234842 | 10 | 248 | 3.2 | 6.4 | 0.00 | 0.00 | 2.39 | 96 | 1004.0 |
| 20260507234332 | 10 | 248 | 3.2 | 6.4 | 0.00 | 0.00 | 2.39 | 96 | 1004.1 |
| 20260507233821 | 11 | 248 | 3.2 | 9.7 | 0.00 | 0.00 | 2.39 | 95 | 1004.3 |
| 20260507233311 | 11 | 248 | 3.2 | 9.7 | 0.00 | 0.00 | 2.39 | 94 | 1004.1 |
| 20260507232801 | 11 | 248 | 1.6 | 9.7 | 0.00 | 0.00 | 2.39 | 93 | 1004.2 |
| 20260507232251 | 11 | 270 | 3.2 | 9.7 | 0.00 | 0.00 | 2.39 | 92 | 1004.1 |
| 20260507231741 | 11 | 248 | 1.6 | 9.7 | 0.00 | 0.00 | 2.39 | 91 | 1004.1 |
| 20260507231231 | 11 | 270 | 3.2 | 9.7 | 0.00 | 0.00 | 2.39 | 92 | 1004.2 |
| 20260507230720 | 11 | 270 | 3.2 | 6.4 | 0.00 | 0.00 | 2.39 | 92 | 1004.0 |
| 20260507230211 | 11 | 248 | 3.2 | 6.4 | 0.00 | 0.00 | 2.39 | 93 | 1004.2 |
| 20260507225700 | 11 | 248 | 3.2 | 6.4 | 0.00 | 0.00 | 2.39 | 93 | 1004.1 |
| 20260507224640 | 11 | 248 | 3.2 | 11.3 | 0.00 | 0.00 | 2.39 | 94 | 1004.2 |
| 20260507223109 | 11 | 270 | 3.2 | 6.4 | 0.00 | 0.00 | 2.39 | 95 | 1004.3 |
| 20260507222559 | 11 | 248 | 3.2 | 9.7 | 0.00 | 0.00 | 2.39 | 94 | 1004.2 |
| 20260507221539 | 11 | 270 | 3.2 | 6.4 | 0.00 | 0.00 | 2.39 | 90 | 1003.9 |
| 20260507220519 | 11 | 248 | 3.2 | 9.7 | 0.00 | 0.00 | 2.39 | 93 | 1003.3 |
| 20260507215459 | 11 | 270 | 1.6 | 6.4 | 0.00 | 0.00 | 2.39 | 95 | 1003.2 |
| 20260507214949 | 11 | 293 | 1.6 | 6.4 | 0.00 | 0.00 | 2.39 | 96 | 1003.4 |
| 20260507214439 | 11 | 293 | 1.6 | 3.2 | 0.00 | 0.00 | 2.39 | 96 | 1003.5 |
| 20260507213929 | 11 | 270 | 0.0 | 9.7 | 0.00 | 0.00 | 2.39 | 96 | 1003.4 |
| 20260507213419 | 11 | 270 | 0.0 | 9.7 | 0.00 | 0.00 | 2.39 | 95 | 1003.3 |
| 20260507212909 | 11 | 270 | 3.2 | 9.7 | 0.00 | 0.00 | 2.39 | 95 | 1003.4 |
| 20260507212358 | 12 | 248 | 3.2 | 11.3 | 0.00 | 0.00 | 2.39 | 94 | 1003.5 |
| 20260507211848 | 12 | 270 | 3.2 | 11.3 | 0.00 | 0.00 | 2.39 | 92 | 1003.5 |
| 20260507210828 | 12 | 248 | 3.2 | 6.4 | 0.00 | 0.00 | 2.39 | 89 | 1003.4 |
| 20260507210319 | 12 | 293 | 3.2 | 6.4 | 0.00 | 0.00 | 2.39 | 89 | 1003.3 |
| 20260507205808 | 12 | 270 | 1.6 | 6.4 | 0.00 | 0.00 | 2.39 | 90 | 1003.4 |
| 20260507205258 | 12 | 270 | 1.6 | 9.7 | 0.00 | 0.00 | 2.39 | 89 | 1003.3 |
| 20260507204748 | 12 | 248 | 6.4 | 9.7 | 0.00 | 0.00 | 2.39 | 89 | 1003.3 |
| 20260507203728 | 12 | 248 | 3.2 | 9.7 | 0.00 | 0.00 | 2.39 | 90 | 1002.9 |
| 20260507203217 | 12 | 248 | 3.2 | 9.7 | 0.00 | 0.00 | 2.39 | 89 | 1003.2 |
| 20260507202708 | 12 | 293 | 3.2 | 9.7 | 0.00 | 0.00 | 2.39 | 89 | 1003.0 |
| 20260507202157 | 12 | 248 | 1.6 | 9.7 | 0.00 | 0.00 | 2.39 | 89 | 1002.7 |
| 20260507201647 | 12 | 248 | 3.2 | 6.4 | 0.00 | 0.00 | 2.39 | 89 | 1003.0 |
| 20260507201137 | 13 | 248 | 1.6 | 6.4 | 0.00 | 0.00 | 2.39 | 88 | 1002.7 |
| 20260507200627 | 13 | 248 | 0.0 | 6.4 | 0.00 | 0.00 | 2.39 | 88 | 1002.9 |
| 20260507195606 | 13 | 270 | 0.0 | 6.4 | 0.00 | 0.00 | 2.39 | 86 | 1002.4 |
| 20260507194036 | 13 | 293 | 0.0 | 6.4 | 0.00 | 0.00 | 2.39 | 85 | 1001.4 |
| 20260507192506 | 13 | 293 | 1.6 | 6.4 | 0.00 | 0.00 | 2.39 | 84 | 1001.2 |
| 20260507191956 | 13 | 248 | 3.2 | 6.4 | 0.00 | 0.00 | 2.39 | 83 | 1002.0 |
| 20260507191445 | 13 | 293 | 1.6 | 11.3 | 0.00 | 0.00 | 2.39 | 83 | 1002.0 |
| 20260507190936 | 13 | 315 | 1.6 | 11.3 | 0.00 | 0.00 | 2.39 | 83 | 1001.8 |
| 20260507190425 | 13 | 270 | 1.6 | 6.4 | 0.00 | 0.00 | 2.39 | 83 | 1002.2 |
| 20260507185916 | 14 | 270 | 3.2 | 9.7 | 0.00 | 0.00 | 2.39 | 81 | 1002.5 |
| 20260507185405 | 14 | 315 | 0.0 | 17.7 | 0.00 | 0.00 | 2.39 | 81 | 1003.0 |
| 20260507184855 | 14 | 338 | 3.2 | 17.7 | 0.00 | 0.00 | 2.39 | 80 | 1003.0 |
| 20260507184345 | 14 | 248 | 3.2 | 11.3 | 0.00 | 0.00 | 2.39 | 80 | 1003.2 |
| 20260507183835 | 14 | 293 | 3.2 | 11.3 | 0.00 | 0.00 | 2.39 | 79 | 1003.3 |
| 20260507182814 | 14 | 248 | 3.2 | 9.7 | 0.00 | 0.00 | 2.39 | 80 | 1003.5 |
| 20260507182307 | 14 | 270 | 3.2 | 11.3 | 0.00 | 0.00 | 2.39 | 81 | 1003.7 |
| 20260507181751 | 14 | 225 | 3.2 | 11.3 | 0.00 | 0.00 | 2.39 | 80 | 1003.9 |
| 20260507181241 | 15 | 315 | 1.6 | 6.4 | 0.00 | 0.00 | 2.39 | 82 | 1004.1 |
| 20260507180733 | 14 | 248 | 0.0 | 9.7 | 0.00 | 0.00 | 2.39 | 82 | 1004.5 |
| 20260507180233 | 14 | 248 | 3.2 | 9.7 | 0.00 | 0.00 | 2.39 | 81 | 1004.7 |
| 20260507175714 | 14 | 225 | 6.4 | 9.7 | 0.00 | 0.00 | 2.39 | 81 | 1004.7 |
| 20260507175204 | 14 | 248 | 3.2 | 14.5 | 0.00 | 0.00 | 2.39 | 82 | 1004.6 |
| 20260507174654 | 14 | 248 | 4.8 | 14.5 | 0.00 | 0.00 | 2.39 | 82 | 1004.7 |
| 20260507174144 | 14 | 248 | 0.0 | 6.4 | 0.00 | 0.00 | 2.39 | 83 | 1004.7 |
| 20260507173634 | 14 | 270 | 0.0 | 17.7 | 0.00 | 0.00 | 2.39 | 83 | 1004.6 |
| 20260507173123 | 13 | 248 | 6.4 | 17.7 | 0.00 | 0.00 | 2.39 | 82 | 1004.4 |
| 20260507172613 | 14 | 248 | 3.2 | 6.4 | 0.00 | 0.00 | 2.39 | 83 | 1004.3 |
| 20260507172102 | 14 | 270 | 3.2 | 6.4 | 0.00 | 0.00 | 2.39 | 83 | 1003.7 |
| 20260507171043 | 14 | 248 | 1.6 | 6.4 | 0.00 | 0.00 | 2.39 | 83 | 1003.5 |
| 20260507165513 | 14 | 248 | 1.6 | 6.4 | 0.00 | 0.00 | 2.39 | 83 | 1003.5 |
| 20260507165002 | 14 | 248 | 1.6 | 6.4 | 0.00 | 0.00 | 2.39 | 83 | 1003.1 |
| 20260507164453 | 14 | 248 | 1.6 | 6.4 | 0.00 | 0.00 | 2.39 | 83 | 1003.1 |
| 20260507163942 | 14 | 270 | 3.2 | 6.4 | 0.00 | 0.00 | 2.39 | 83 | 1003.2 |
| 20260507163431 | 14 | 248 | 1.6 | 6.4 | 0.00 | 0.00 | 2.39 | 85 | 1003.4 |
| 20260507162922 | 13 | 270 | 0.0 | 6.4 | 0.00 | 0.00 | 2.39 | 86 | 1003.5 |
| 20260507162411 | 13 | 248 | 1.6 | 6.4 | 0.00 | 0.00 | 2.39 | 85 | 1003.8 |
| 20260507161902 | 13 | 293 | 3.2 | 6.4 | 0.00 | 0.00 | 2.39 | 84 | 1003.9 |
| 20260507161352 | 13 | 270 | 1.6 | 9.7 | 0.00 | 0.00 | 2.39 | 85 | 1004.1 |
| 20260507160841 | 14 | 248 | 3.2 | 9.7 | 0.00 | 0.00 | 2.39 | 85 | 1003.9 |
| 20260507155821 | 14 | 225 | 3.2 | 6.4 | 0.00 | 0.00 | 2.39 | 85 | 1004.1 |
| 20260507155311 | 14 | 315 | 3.2 | 6.4 | 0.00 | 0.00 | 2.39 | 85 | 1003.5 |